Year,Month,Day,Hour,Minute,Value (Times are PST for windspeed in km/hr)
2018,12,22,00,00,1.00
2018,12,22,00,01,6.70
2018,12,22,00,02,4.80
2018,12,22,00,03,2.70
2018,12,22,00,04,3.90
2018,12,22,00,05,1.90
2018,12,22,00,06,4.10
2018,12,22,00,07,6.10
2018,12,22,00,08,6.10
2018,12,22,00,09,4.40
2018,12,22,00,10,1.50
2018,12,22,00,11,1.00
2018,12,22,00,12,2.20
2018,12,22,00,13,4.00
2018,12,22,00,14,5.80
2018,12,22,00,15,5.30
2018,12,22,00,16,5.80
2018,12,22,00,17,4.60
2018,12,22,00,18,5.50
2018,12,22,00,19,4.90
2018,12,22,00,20,3.00
2018,12,22,00,21,4.20
2018,12,22,00,22,7.40
2018,12,22,00,23,4.00
2018,12,22,00,24,7.20
2018,12,22,00,25,4.70
2018,12,22,00,26,3.60
2018,12,22,00,27,4.50
2018,12,22,00,28,4.80
2018,12,22,00,29,2.90
2018,12,22,00,30,5.50
2018,12,22,00,31,3.80
2018,12,22,00,32,4.90
2018,12,22,00,33,12.00
2018,12,22,00,34,7.00
2018,12,22,00,35,3.90
2018,12,22,00,36,5.90
2018,12,22,00,37,7.60
2018,12,22,00,38,7.00
2018,12,22,00,39,5.40
2018,12,22,00,40,9.30
2018,12,22,00,41,7.20
2018,12,22,00,42,10.50
2018,12,22,00,43,9.90
2018,12,22,00,44,6.00
2018,12,22,00,45,5.20
2018,12,22,00,46,5.10
2018,12,22,00,47,4.60
2018,12,22,00,48,7.60
2018,12,22,00,49,10.30
2018,12,22,00,50,8.10
2018,12,22,00,51,8.20
2018,12,22,00,52,5.70
2018,12,22,00,53,3.20
2018,12,22,00,54,2.40
2018,12,22,00,55,7.30
2018,12,22,00,56,9.30
2018,12,22,00,57,10.50
2018,12,22,00,58,6.40
2018,12,22,00,59,6.40
2018,12,22,01,00,7.50
2018,12,22,01,01,1.50
2018,12,22,01,02,3.30
2018,12,22,01,03,4.60
2018,12,22,01,04,7.40
2018,12,22,01,05,7.30
2018,12,22,01,06,8.00
2018,12,22,01,07,6.10
2018,12,22,01,08,3.70
2018,12,22,01,09,7.60
2018,12,22,01,10,7.00
2018,12,22,01,11,6.10
2018,12,22,01,12,5.40
2018,12,22,01,13,3.90
2018,12,22,01,14,5.50
2018,12,22,01,15,4.30
2018,12,22,01,16,1.00
2018,12,22,01,17,0.70
2018,12,22,01,18,3.70
2018,12,22,01,19,9.40
2018,12,22,01,20,6.70
2018,12,22,01,21,6.70
2018,12,22,01,22,5.50
2018,12,22,01,23,3.50
2018,12,22,01,24,8.40
2018,12,22,01,25,6.80
2018,12,22,01,26,4.20
2018,12,22,01,27,5.60
2018,12,22,01,28,6.00
2018,12,22,01,29,6.20
2018,12,22,01,30,3.40
2018,12,22,01,31,4.20
2018,12,22,01,32,7.20
2018,12,22,01,33,5.30
2018,12,22,01,34,4.80
2018,12,22,01,35,2.20
2018,12,22,01,36,3.60
2018,12,22,01,37,2.30
2018,12,22,01,38,1.20
2018,12,22,01,39,0.60
2018,12,22,01,40,9.50
2018,12,22,01,41,14.40
2018,12,22,01,42,4.70
2018,12,22,01,43,2.50
2018,12,22,01,44,8.20
2018,12,22,01,45,4.60
2018,12,22,01,46,3.10
2018,12,22,01,47,9.30
2018,12,22,01,48,5.50
2018,12,22,01,49,3.40
2018,12,22,01,50,5.10
2018,12,22,01,51,1.70
2018,12,22,01,52,5.60
2018,12,22,01,53,1.30
2018,12,22,01,54,6.90
2018,12,22,01,55,6.90
2018,12,22,01,56,2.80
2018,12,22,01,57,7.20
2018,12,22,01,58,6.60
2018,12,22,01,59,7.40
2018,12,22,02,00,9.10
2018,12,22,02,01,5.50
2018,12,22,02,02,8.30
2018,12,22,02,03,3.20
2018,12,22,02,04,3.70
2018,12,22,02,05,6.30
2018,12,22,02,06,4.40
2018,12,22,02,07,6.10
2018,12,22,02,08,7.90
2018,12,22,02,09,6.10
2018,12,22,02,10,10.10
2018,12,22,02,11,6.20
2018,12,22,02,12,4.60
2018,12,22,02,13,6.40
2018,12,22,02,14,4.00
2018,12,22,02,15,3.10
2018,12,22,02,16,6.60
2018,12,22,02,17,2.60
2018,12,22,02,18,1.80
2018,12,22,02,19,4.80
2018,12,22,02,20,11.40
2018,12,22,02,21,9.30
2018,12,22,02,22,8.20
2018,12,22,02,23,4.90
2018,12,22,02,24,4.40
2018,12,22,02,25,8.00
2018,12,22,02,26,3.30
2018,12,22,02,27,5.50
2018,12,22,02,28,6.30
2018,12,22,02,29,6.50
2018,12,22,02,30,9.30
2018,12,22,02,31,4.70
2018,12,22,02,32,5.80
2018,12,22,02,33,12.70
2018,12,22,02,34,7.90
2018,12,22,02,35,7.70
2018,12,22,02,36,10.50
2018,12,22,02,37,1.90
2018,12,22,02,38,0.40
2018,12,22,02,39,2.70
2018,12,22,02,40,3.70
2018,12,22,02,41,7.50
2018,12,22,02,42,5.10
2018,12,22,02,43,5.80
2018,12,22,02,44,2.90
2018,12,22,02,45,3.00
2018,12,22,02,46,5.80
2018,12,22,02,47,1.80
2018,12,22,02,48,7.60
2018,12,22,02,49,2.70
2018,12,22,02,50,3.50
2018,12,22,02,51,7.90
2018,12,22,02,52,12.40
2018,12,22,02,53,12.90
2018,12,22,02,54,5.30
2018,12,22,02,55,3.20
2018,12,22,02,56,1.60
2018,12,22,02,57,3.10
2018,12,22,02,58,6.70
2018,12,22,02,59,1.70
2018,12,22,03,00,2.70
2018,12,22,03,01,2.00
2018,12,22,03,02,2.10
2018,12,22,03,03,1.80
2018,12,22,03,04,0.60
2018,12,22,03,05,8.30
2018,12,22,03,06,5.40
2018,12,22,03,07,7.50
2018,12,22,03,08,3.90
2018,12,22,03,09,10.00
2018,12,22,03,10,7.70
2018,12,22,03,11,4.80
2018,12,22,03,12,10.20
2018,12,22,03,13,8.50
2018,12,22,03,14,12.20
2018,12,22,03,15,6.00
2018,12,22,03,16,7.40
2018,12,22,03,17,10.10
2018,12,22,03,18,6.80
2018,12,22,03,19,8.20
2018,12,22,03,20,12.20
2018,12,22,03,21,7.50
2018,12,22,03,22,5.80
2018,12,22,03,23,5.90
2018,12,22,03,24,8.60
2018,12,22,03,25,10.30
2018,12,22,03,26,5.60
2018,12,22,03,27,4.80
2018,12,22,03,28,6.70
2018,12,22,03,29,13.00
2018,12,22,03,30,6.50
2018,12,22,03,31,2.60
2018,12,22,03,32,6.40
2018,12,22,03,33,5.40
2018,12,22,03,34,3.40
2018,12,22,03,35,3.20
2018,12,22,03,36,6.30
2018,12,22,03,37,7.50
2018,12,22,03,38,6.30
2018,12,22,03,39,8.10
2018,12,22,03,40,6.80
2018,12,22,03,41,9.50
2018,12,22,03,42,5.20
2018,12,22,03,43,5.50
2018,12,22,03,44,6.70
2018,12,22,03,45,8.00
2018,12,22,03,46,6.70
2018,12,22,03,47,9.50
2018,12,22,03,48,7.20
2018,12,22,03,49,6.60
2018,12,22,03,50,6.40
2018,12,22,03,51,6.00
2018,12,22,03,52,1.90
2018,12,22,03,53,2.20
2018,12,22,03,54,4.10
2018,12,22,03,55,4.50
2018,12,22,03,56,3.20
2018,12,22,03,57,3.20
2018,12,22,03,58,3.70
2018,12,22,03,59,5.00
2018,12,22,04,00,3.10
2018,12,22,04,01,3.30
2018,12,22,04,02,5.30
2018,12,22,04,03,4.00
2018,12,22,04,04,8.00
2018,12,22,04,08,8.90
2018,12,22,04,09,5.50
2018,12,22,04,10,3.90
2018,12,22,04,11,8.50
2018,12,22,04,12,5.80
2018,12,22,04,13,6.60
2018,12,22,04,14,8.20
2018,12,22,04,15,10.50
2018,12,22,04,16,9.00
2018,12,22,04,17,7.60
2018,12,22,04,18,7.30
2018,12,22,04,19,7.50
2018,12,22,04,20,5.10
2018,12,22,04,21,7.00
2018,12,22,04,22,8.30
2018,12,22,04,23,9.40
2018,12,22,04,24,4.60
2018,12,22,04,25,4.80
2018,12,22,04,26,6.10
2018,12,22,04,27,7.20
2018,12,22,04,28,9.80
2018,12,22,04,29,9.20
2018,12,22,04,30,7.40
2018,12,22,04,31,7.60
2018,12,22,04,32,5.50
2018,12,22,04,33,5.20
2018,12,22,04,34,1.20
2018,12,22,04,35,5.50
2018,12,22,04,36,7.00
2018,12,22,04,37,10.80
2018,12,22,04,38,7.40
2018,12,22,04,39,8.80
2018,12,22,04,40,11.30
2018,12,22,04,41,11.30
2018,12,22,04,42,6.90
2018,12,22,04,43,6.90
2018,12,22,04,44,7.60
2018,12,22,04,45,5.00
2018,12,22,04,46,5.90
2018,12,22,04,47,5.30
2018,12,22,04,48,6.40
2018,12,22,04,49,3.90
2018,12,22,04,50,6.60
2018,12,22,04,51,6.80
2018,12,22,04,52,6.20
2018,12,22,04,53,4.10
2018,12,22,04,54,0.80
2018,12,22,04,55,2.10
2018,12,22,04,56,5.70
2018,12,22,04,57,4.20
2018,12,22,04,58,5.60
2018,12,22,04,59,9.90
2018,12,22,05,00,6.20
2018,12,22,05,01,7.00
2018,12,22,05,02,5.30
2018,12,22,05,03,8.00
2018,12,22,05,04,7.80
2018,12,22,05,05,4.90
2018,12,22,05,06,6.70
2018,12,22,05,07,7.50
2018,12,22,05,08,6.10
2018,12,22,05,09,8.40
2018,12,22,05,10,10.90
2018,12,22,05,11,11.30
2018,12,22,05,12,7.00
2018,12,22,05,13,2.80
2018,12,22,05,14,5.40
2018,12,22,05,15,4.00
2018,12,22,05,16,6.80
2018,12,22,05,17,1.80
2018,12,22,05,18,2.90
2018,12,22,05,19,2.20
2018,12,22,05,20,4.80
2018,12,22,05,21,5.80
2018,12,22,05,22,2.70
2018,12,22,05,23,1.60
2018,12,22,05,24,2.90
2018,12,22,05,25,3.90
2018,12,22,05,26,3.40
2018,12,22,05,27,2.10
2018,12,22,05,28,5.10
2018,12,22,05,29,3.00
2018,12,22,05,30,3.40
2018,12,22,05,31,3.10
2018,12,22,05,32,8.90
2018,12,22,05,33,3.40
2018,12,22,05,34,5.90
2018,12,22,05,35,5.00
2018,12,22,05,36,4.10
2018,12,22,05,37,4.70
2018,12,22,05,38,4.20
2018,12,22,05,39,5.60
2018,12,22,05,40,5.80
2018,12,22,05,41,1.40
2018,12,22,05,42,2.10
2018,12,22,05,43,3.30
2018,12,22,05,44,2.70
2018,12,22,05,45,2.10
2018,12,22,05,46,3.90
2018,12,22,05,47,3.30
2018,12,22,05,48,5.10
2018,12,22,05,49,5.60
2018,12,22,05,50,8.50
2018,12,22,05,51,7.00
2018,12,22,05,52,4.00
2018,12,22,05,53,5.50
2018,12,22,05,54,5.70
2018,12,22,05,55,3.90
2018,12,22,05,56,3.60
2018,12,22,05,57,12.50
2018,12,22,05,58,6.50
2018,12,22,05,59,5.20
2018,12,22,06,00,3.40
2018,12,22,06,01,1.70
2018,12,22,06,02,6.90
2018,12,22,06,03,7.40
2018,12,22,06,04,6.40
2018,12,22,06,05,7.70
2018,12,22,06,06,8.00
2018,12,22,06,07,11.30
2018,12,22,06,08,6.10
2018,12,22,06,09,6.10
2018,12,22,06,10,3.70
2018,12,22,06,11,5.10
2018,12,22,06,12,6.10
2018,12,22,06,13,13.10
2018,12,22,06,14,8.90
2018,12,22,06,15,6.60
2018,12,22,06,16,10.10
2018,12,22,06,17,11.80
2018,12,22,06,18,11.00
2018,12,22,06,19,10.40
2018,12,22,06,20,12.40
2018,12,22,06,21,8.60
2018,12,22,06,22,7.60
2018,12,22,06,23,3.90
2018,12,22,06,24,9.10
2018,12,22,06,25,7.30
2018,12,22,06,26,12.00
2018,12,22,06,27,7.60
2018,12,22,06,28,6.40
2018,12,22,06,29,7.40
2018,12,22,06,30,9.10
2018,12,22,06,31,8.80
2018,12,22,06,32,7.10
2018,12,22,06,33,7.80
2018,12,22,06,34,14.30
2018,12,22,06,35,11.30
2018,12,22,06,36,9.50
2018,12,22,06,37,10.50
2018,12,22,06,38,8.40
2018,12,22,06,39,10.70
2018,12,22,06,40,10.20
2018,12,22,06,41,9.40
2018,12,22,06,42,9.00
2018,12,22,06,43,12.40
2018,12,22,06,44,8.50
2018,12,22,06,45,11.10
2018,12,22,06,46,11.30
2018,12,22,06,47,12.00
2018,12,22,06,48,9.80
2018,12,22,06,49,7.50
2018,12,22,06,50,6.70
2018,12,22,06,51,5.30
2018,12,22,06,52,6.00
2018,12,22,06,53,8.70
2018,12,22,06,54,11.50
2018,12,22,06,55,6.50
2018,12,22,06,56,10.00
2018,12,22,06,57,8.90
2018,12,22,06,58,9.10
2018,12,22,06,59,12.60
2018,12,22,07,00,8.70
2018,12,22,07,01,8.70
2018,12,22,07,02,10.20
2018,12,22,07,03,9.20
2018,12,22,07,04,7.40
2018,12,22,07,05,10.30
2018,12,22,07,06,10.80
2018,12,22,07,07,7.10
2018,12,22,07,08,6.00
2018,12,22,07,09,14.30
2018,12,22,07,10,9.80
2018,12,22,07,11,7.00
2018,12,22,07,12,5.40
2018,12,22,07,13,7.00
2018,12,22,07,14,10.60
2018,12,22,07,15,6.70
2018,12,22,07,16,6.60
2018,12,22,07,17,8.20
2018,12,22,07,18,12.20
2018,12,22,07,19,6.70
2018,12,22,07,20,10.10
2018,12,22,07,21,8.80
2018,12,22,07,22,13.00
2018,12,22,07,23,9.40
2018,12,22,07,24,11.40
2018,12,22,07,25,8.10
2018,12,22,07,26,10.10
2018,12,22,07,27,9.00
2018,12,22,07,28,14.10
2018,12,22,07,29,12.00
2018,12,22,07,30,14.20
2018,12,22,07,31,5.00
2018,12,22,07,32,6.50
2018,12,22,07,33,11.00
2018,12,22,07,34,9.10
2018,12,22,07,35,5.90
2018,12,22,07,36,7.70
2018,12,22,07,37,5.10
2018,12,22,07,38,6.10
2018,12,22,07,39,7.80
2018,12,22,07,40,6.90
2018,12,22,07,41,8.50
2018,12,22,07,42,7.80
2018,12,22,07,43,8.70
2018,12,22,07,44,7.10
2018,12,22,07,45,5.40
2018,12,22,07,46,3.80
2018,12,22,07,47,6.40
2018,12,22,07,48,12.30
2018,12,22,07,49,9.50
2018,12,22,07,50,10.90
2018,12,22,07,51,6.20
2018,12,22,07,52,10.80
2018,12,22,07,53,10.20
2018,12,22,07,54,10.50
2018,12,22,07,55,11.10
2018,12,22,07,56,10.40
2018,12,22,07,57,11.90
2018,12,22,07,58,12.20
2018,12,22,07,59,9.80
2018,12,22,08,00,13.20
2018,12,22,08,01,10.90
2018,12,22,08,02,5.60
2018,12,22,08,03,10.40
2018,12,22,08,04,11.30
2018,12,22,08,05,8.10
2018,12,22,08,06,6.70
2018,12,22,08,07,10.00
2018,12,22,08,08,8.40
2018,12,22,08,09,7.50
2018,12,22,08,10,10.20
2018,12,22,08,11,6.50
2018,12,22,08,12,5.50
2018,12,22,08,13,6.00
2018,12,22,08,14,10.40
2018,12,22,08,15,5.70
2018,12,22,08,16,8.00
2018,12,22,08,17,10.10
2018,12,22,08,18,11.30
2018,12,22,08,19,9.40
2018,12,22,08,20,7.50
2018,12,22,08,21,5.70
2018,12,22,08,22,6.30
2018,12,22,08,23,5.90
2018,12,22,08,24,8.30
2018,12,22,08,25,11.00
2018,12,22,08,26,9.10
2018,12,22,08,27,6.40
2018,12,22,08,28,8.00
2018,12,22,08,29,9.90
2018,12,22,08,30,8.80
2018,12,22,08,31,7.40
2018,12,22,08,32,7.80
2018,12,22,08,33,6.10
2018,12,22,08,34,5.00
2018,12,22,08,35,8.10
2018,12,22,08,36,5.10
2018,12,22,08,37,6.70
2018,12,22,08,38,6.40
2018,12,22,08,39,6.80
2018,12,22,08,40,11.70
2018,12,22,08,41,6.80
2018,12,22,08,42,6.30
2018,12,22,08,43,9.70
2018,12,22,08,44,8.70
2018,12,22,08,45,8.10
2018,12,22,08,46,7.20
2018,12,22,08,47,8.10
2018,12,22,08,48,8.60
2018,12,22,08,49,9.00
2018,12,22,08,50,9.60
2018,12,22,08,51,9.00
2018,12,22,08,52,11.00
2018,12,22,08,53,7.20
2018,12,22,08,54,11.00
2018,12,22,08,55,10.40
2018,12,22,08,56,9.70
2018,12,22,08,57,8.40
2018,12,22,08,58,8.30
2018,12,22,08,59,5.20
2018,12,22,09,00,6.10
2018,12,22,09,01,5.60
2018,12,22,09,02,7.10
2018,12,22,09,03,8.30
2018,12,22,09,04,9.80
2018,12,22,09,05,5.00
2018,12,22,09,06,7.70
2018,12,22,09,07,7.50
2018,12,22,09,08,6.90
2018,12,22,09,09,8.50
2018,12,22,09,10,7.70
2018,12,22,09,11,4.30
2018,12,22,09,12,5.00
2018,12,22,09,13,8.30
2018,12,22,09,14,7.80
2018,12,22,09,15,4.80
2018,12,22,09,16,6.10
2018,12,22,09,17,8.10
2018,12,22,09,18,6.40
2018,12,22,09,19,9.70
2018,12,22,09,20,8.40
2018,12,22,09,21,9.50
2018,12,22,09,22,9.90
2018,12,22,09,23,9.30
2018,12,22,09,24,8.40
2018,12,22,09,25,11.60
2018,12,22,09,26,10.00
2018,12,22,09,27,11.20
2018,12,22,09,28,11.50
2018,12,22,09,29,10.30
2018,12,22,09,30,11.90
2018,12,22,09,31,11.10
2018,12,22,09,32,8.40
2018,12,22,09,33,9.70
2018,12,22,09,34,9.80
2018,12,22,09,35,11.20
2018,12,22,09,36,6.70
2018,12,22,09,37,10.00
2018,12,22,09,38,10.30
2018,12,22,09,39,10.30
2018,12,22,09,40,10.80
2018,12,22,09,41,10.30
2018,12,22,09,42,10.30
2018,12,22,09,43,11.40
2018,12,22,09,44,10.50
2018,12,22,09,45,13.60
2018,12,22,09,46,8.30
2018,12,22,09,47,14.60
2018,12,22,09,48,11.00
2018,12,22,09,49,10.20
2018,12,22,09,50,8.00
2018,12,22,09,51,9.90
2018,12,22,09,52,12.20
2018,12,22,09,53,11.20
2018,12,22,09,54,9.40
2018,12,22,09,55,8.00
2018,12,22,09,56,7.30
2018,12,22,09,57,8.80
2018,12,22,09,58,6.90
2018,12,22,09,59,8.40
2018,12,22,10,00,6.60
2018,12,22,10,01,13.30
2018,12,22,10,02,11.70
2018,12,22,10,03,7.70
2018,12,22,10,04,6.70
2018,12,22,10,05,8.90
2018,12,22,10,06,9.10
2018,12,22,10,07,12.70
2018,12,22,10,08,7.80
2018,12,22,10,09,3.50
2018,12,22,10,10,6.70
2018,12,22,10,11,8.20
2018,12,22,10,12,12.00
2018,12,22,10,13,12.80
2018,12,22,10,14,9.60
2018,12,22,10,15,9.30
2018,12,22,10,16,7.60
2018,12,22,10,17,5.50
2018,12,22,10,18,9.50
2018,12,22,10,19,13.40
2018,12,22,10,20,13.40
2018,12,22,10,21,6.70
2018,12,22,10,22,8.30
2018,12,22,10,23,5.80
2018,12,22,10,24,6.60
2018,12,22,10,25,5.00
2018,12,22,10,26,2.50
2018,12,22,10,27,4.20
2018,12,22,10,28,5.00
2018,12,22,10,29,8.00
2018,12,22,10,30,6.40
2018,12,22,10,31,12.10
2018,12,22,10,32,5.60
2018,12,22,10,33,8.50
2018,12,22,10,34,5.30
2018,12,22,10,35,7.80
2018,12,22,10,36,5.40
2018,12,22,10,37,5.10
2018,12,22,10,38,4.80
2018,12,22,10,39,6.60
2018,12,22,10,40,6.50
2018,12,22,10,41,7.70
2018,12,22,10,42,3.80
2018,12,22,10,43,4.80
2018,12,22,10,44,5.70
2018,12,22,10,45,3.30
2018,12,22,10,46,6.00
2018,12,22,10,47,0.80
2018,12,22,10,48,4.00
2018,12,22,10,49,7.20
2018,12,22,10,50,5.10
2018,12,22,10,51,3.60
2018,12,22,10,52,7.20
2018,12,22,10,53,6.70
2018,12,22,10,54,7.80
2018,12,22,10,55,4.80
2018,12,22,10,56,4.90
2018,12,22,10,57,6.00
2018,12,22,10,58,7.80
2018,12,22,10,59,15.00
2018,12,22,11,00,9.40
2018,12,22,11,01,14.10
2018,12,22,11,02,12.60
2018,12,22,11,03,12.80
2018,12,22,11,04,4.30
2018,12,22,11,05,5.60
2018,12,22,11,06,7.80
2018,12,22,11,07,10.10
2018,12,22,11,08,6.80
2018,12,22,11,09,13.60
2018,12,22,11,10,10.20
2018,12,22,11,11,9.70
2018,12,22,11,12,7.40
2018,12,22,11,13,7.80
2018,12,22,11,14,12.30
2018,12,22,11,15,9.00
2018,12,22,11,16,9.60
2018,12,22,11,17,13.40
2018,12,22,11,18,11.90
2018,12,22,11,19,16.70
2018,12,22,11,20,15.20
2018,12,22,11,21,8.90
2018,12,22,11,22,8.50
2018,12,22,11,23,13.40
2018,12,22,11,24,11.00
2018,12,22,11,25,13.90
2018,12,22,11,26,13.10
2018,12,22,11,27,9.00
2018,12,22,11,28,8.20
2018,12,22,11,29,14.60
2018,12,22,11,30,13.10
2018,12,22,11,31,6.90
2018,12,22,11,32,5.70
2018,12,22,11,33,10.30
2018,12,22,11,34,11.30
2018,12,22,11,35,8.10
2018,12,22,11,36,8.00
2018,12,22,11,37,6.60
2018,12,22,11,38,6.50
2018,12,22,11,39,12.60
2018,12,22,11,40,16.10
2018,12,22,11,41,15.00
2018,12,22,11,42,10.70
2018,12,22,11,43,4.10
2018,12,22,11,44,6.80
2018,12,22,11,45,5.90
2018,12,22,11,46,7.50
2018,12,22,11,47,7.80
2018,12,22,11,48,10.60
2018,12,22,11,49,9.30
2018,12,22,11,50,8.90
2018,12,22,11,51,5.70
2018,12,22,11,52,8.70
2018,12,22,11,53,7.20
2018,12,22,11,54,5.90
2018,12,22,11,55,11.60
2018,12,22,11,56,11.70
2018,12,22,11,57,15.50
2018,12,22,11,58,10.40
2018,12,22,11,59,10.70
2018,12,22,12,00,9.60
2018,12,22,12,01,10.30
2018,12,22,12,02,14.30
2018,12,22,12,03,8.10
2018,12,22,12,04,8.70
2018,12,22,12,05,10.80
2018,12,22,12,06,7.50
2018,12,22,12,07,4.50
2018,12,22,12,08,9.40
2018,12,22,12,09,9.10
2018,12,22,12,10,10.80
2018,12,22,12,11,10.90
2018,12,22,12,12,10.00
2018,12,22,12,13,8.80
2018,12,22,12,14,8.80
2018,12,22,12,15,8.20
2018,12,22,12,16,8.30
2018,12,22,12,17,10.00
2018,12,22,12,18,5.80
2018,12,22,12,19,11.00
2018,12,22,12,20,8.20
2018,12,22,12,21,6.30
2018,12,22,12,22,7.80
2018,12,22,12,23,15.10
2018,12,22,12,24,9.70
2018,12,22,12,25,11.70
2018,12,22,12,26,10.80
2018,12,22,12,27,14.40
2018,12,22,12,28,12.90
2018,12,22,12,29,7.80
2018,12,22,12,30,7.50
2018,12,22,12,31,8.10
2018,12,22,12,32,9.30
2018,12,22,12,33,10.00
2018,12,22,12,34,11.20
2018,12,22,12,35,7.50
2018,12,22,12,36,7.80
2018,12,22,12,37,10.60
2018,12,22,12,38,6.40
2018,12,22,12,39,9.50
2018,12,22,12,40,16.20
2018,12,22,12,41,13.50
2018,12,22,12,42,16.00
2018,12,22,12,43,8.60
2018,12,22,12,44,4.00
2018,12,22,12,45,4.80
2018,12,22,12,46,6.00
2018,12,22,12,47,14.50
2018,12,22,12,48,11.80
2018,12,22,12,49,13.70
2018,12,22,12,50,13.90
2018,12,22,12,51,8.30
2018,12,22,12,52,7.60
2018,12,22,12,53,6.70
2018,12,22,12,54,5.20
2018,12,22,12,55,5.60
2018,12,22,12,56,5.50
2018,12,22,12,57,10.50
2018,12,22,12,58,10.40
2018,12,22,12,59,9.30
2018,12,22,13,00,7.10
2018,12,22,13,01,4.80
2018,12,22,13,02,7.00
2018,12,22,13,03,2.10
2018,12,22,13,04,6.70
2018,12,22,13,05,4.00
2018,12,22,13,06,2.70
2018,12,22,13,07,4.80
2018,12,22,13,08,5.80
2018,12,22,13,09,7.60
2018,12,22,13,10,4.50
2018,12,22,13,11,3.20
2018,12,22,13,12,0.90
2018,12,22,13,13,2.30
2018,12,22,13,14,3.50
2018,12,22,13,15,1.60
2018,12,22,13,16,9.60
2018,12,22,13,17,5.00
2018,12,22,13,18,8.70
2018,12,22,13,19,9.00
2018,12,22,13,20,5.20
2018,12,22,13,21,2.90
2018,12,22,13,22,3.80
2018,12,22,13,23,4.00
2018,12,22,13,24,9.70
2018,12,22,13,25,2.50
2018,12,22,13,26,4.50
2018,12,22,13,27,9.60
2018,12,22,13,28,6.40
2018,12,22,13,29,1.50
2018,12,22,13,30,4.30
2018,12,22,13,31,2.10
2018,12,22,13,32,0.10
2018,12,22,13,33,1.10
2018,12,22,13,34,1.90
2018,12,22,13,35,1.80
2018,12,22,13,36,2.70
2018,12,22,13,37,0.20
2018,12,22,13,38,2.00
2018,12,22,13,39,7.60
2018,12,22,13,40,2.60
2018,12,22,13,41,5.10
2018,12,22,13,42,7.50
2018,12,22,13,43,3.70
2018,12,22,13,44,2.40
2018,12,22,13,45,9.50
2018,12,22,13,46,6.50
2018,12,22,13,47,0.80
2018,12,22,13,48,6.00
2018,12,22,13,49,4.30
2018,12,22,13,50,2.90
2018,12,22,13,51,2.40
2018,12,22,13,52,7.30
2018,12,22,13,53,10.00
2018,12,22,13,54,8.90
2018,12,22,13,55,8.50
2018,12,22,13,56,5.80
2018,12,22,13,57,1.90
2018,12,22,13,58,3.10
2018,12,22,13,59,4.00
2018,12,22,14,00,6.50
2018,12,22,14,01,4.70
2018,12,22,14,02,8.00
2018,12,22,14,03,7.60
2018,12,22,14,04,4.00
2018,12,22,14,05,0.30
2018,12,22,14,06,3.00
2018,12,22,14,07,3.80
2018,12,22,14,08,3.90
2018,12,22,14,09,7.90
2018,12,22,14,10,5.40
2018,12,22,14,11,3.10
2018,12,22,14,12,1.40
2018,12,22,14,13,1.50
2018,12,22,14,14,4.10
2018,12,22,14,15,1.70
2018,12,22,14,16,6.70
2018,12,22,14,17,1.80
2018,12,22,14,18,1.40
2018,12,22,14,19,2.10
2018,12,22,14,20,4.50
2018,12,22,14,21,3.10
2018,12,22,14,22,4.30
2018,12,22,14,23,3.90
2018,12,22,14,24,2.10
2018,12,22,14,25,0.10
2018,12,22,14,26,3.10
2018,12,22,14,27,3.40
2018,12,22,14,28,0.20
2018,12,22,14,29,0.20
2018,12,22,14,30,0.60
2018,12,22,14,31,2.60
2018,12,22,14,32,1.10
2018,12,22,14,33,0.50
2018,12,22,14,34,3.70
2018,12,22,14,35,1.20
2018,12,22,14,36,2.00
2018,12,22,14,37,4.90
2018,12,22,14,38,2.40
2018,12,22,14,39,1.30
2018,12,22,14,40,0.30
2018,12,22,14,41,2.60
2018,12,22,14,42,0.80
2018,12,22,14,43,2.50
2018,12,22,14,44,1.90
2018,12,22,14,45,1.80
2018,12,22,14,46,5.20
2018,12,22,14,47,0.80
2018,12,22,14,48,4.30
2018,12,22,14,49,4.10
2018,12,22,14,50,3.70
2018,12,22,14,51,0.60
2018,12,22,14,52,1.50
2018,12,22,14,53,0.50
2018,12,22,14,54,0.60
2018,12,22,14,55,2.20
2018,12,22,14,56,1.10
2018,12,22,14,57,0.10
2018,12,22,14,58,3.60
2018,12,22,14,59,1.90
2018,12,22,15,00,2.10
2018,12,22,15,01,1.50
2018,12,22,15,02,0.50
2018,12,22,15,03,0.40
2018,12,22,15,04,0.20
2018,12,22,15,05,6.40
2018,12,22,15,06,3.10
2018,12,22,15,07,0.50
2018,12,22,15,08,0.00
2018,12,22,15,09,0.80
2018,12,22,15,10,0.40
2018,12,22,15,11,1.80
2018,12,22,15,12,0.40
2018,12,22,15,13,0.10
2018,12,22,15,14,0.00
2018,12,22,15,15,0.20
2018,12,22,15,16,0.40
2018,12,22,15,17,2.00
2018,12,22,15,18,3.10
2018,12,22,15,19,3.80
2018,12,22,15,20,4.40
2018,12,22,15,21,3.40
2018,12,22,15,22,3.00
2018,12,22,15,23,1.60
2018,12,22,15,24,5.90
2018,12,22,15,25,4.30
2018,12,22,15,26,7.30
2018,12,22,15,27,2.60
2018,12,22,15,28,3.40
2018,12,22,15,29,3.20
2018,12,22,15,30,9.30
2018,12,22,15,31,8.50
2018,12,22,15,32,6.20
2018,12,22,15,33,5.10
2018,12,22,15,34,2.40
2018,12,22,15,35,3.90
2018,12,22,15,36,8.30
2018,12,22,15,37,4.10
2018,12,22,15,38,4.20
2018,12,22,15,39,3.40
2018,12,22,15,40,0.40
2018,12,22,15,41,2.90
2018,12,22,15,42,1.60
2018,12,22,15,43,4.40
2018,12,22,15,44,3.80
2018,12,22,15,45,3.30
2018,12,22,15,46,0.80
2018,12,22,15,47,8.70
2018,12,22,15,48,4.50
2018,12,22,15,49,6.80
2018,12,22,15,50,3.10
2018,12,22,15,51,0.10
2018,12,22,15,52,0.40
2018,12,22,15,53,2.80
2018,12,22,15,54,1.50
2018,12,22,15,55,1.20
2018,12,22,15,56,0.40
2018,12,22,15,57,4.70
2018,12,22,15,58,2.50
2018,12,22,15,59,2.00
2018,12,22,16,00,2.40
2018,12,22,16,01,2.80
2018,12,22,16,02,5.70
2018,12,22,16,03,4.70
2018,12,22,16,04,5.90
2018,12,22,16,05,1.90
2018,12,22,16,06,7.50
2018,12,22,16,07,4.10
2018,12,22,16,08,2.40
2018,12,22,16,09,1.00
2018,12,22,16,10,2.20
2018,12,22,16,11,1.00
2018,12,22,16,12,1.70
2018,12,22,16,13,1.40
2018,12,22,16,14,3.60
2018,12,22,16,15,4.80
2018,12,22,16,16,2.60
2018,12,22,16,17,3.20
2018,12,22,16,18,2.30
2018,12,22,16,19,8.00
2018,12,22,16,20,7.60
2018,12,22,16,21,6.10
2018,12,22,16,22,6.00
2018,12,22,16,23,0.20
2018,12,22,16,24,2.50
2018,12,22,16,25,7.60
2018,12,22,16,26,6.00
2018,12,22,16,27,1.50
2018,12,22,16,28,5.10
2018,12,22,16,29,1.70
2018,12,22,16,30,4.40
2018,12,22,16,31,3.00
2018,12,22,16,32,3.10
2018,12,22,16,33,5.50
2018,12,22,16,34,7.20
2018,12,22,16,35,9.20
2018,12,22,16,36,4.30
2018,12,22,16,37,2.00
2018,12,22,16,38,3.70
2018,12,22,16,39,5.60
2018,12,22,16,40,7.20
2018,12,22,16,41,8.10
2018,12,22,16,42,7.40
2018,12,22,16,43,4.90
2018,12,22,16,44,2.10
2018,12,22,16,45,0.60
2018,12,22,16,46,4.90
2018,12,22,16,47,9.30
2018,12,22,16,48,4.30
2018,12,22,16,49,3.50
2018,12,22,16,50,0.20
2018,12,22,16,51,3.40
2018,12,22,16,52,2.60
2018,12,22,16,53,2.50
2018,12,22,16,54,4.60
2018,12,22,16,55,2.30
2018,12,22,16,56,2.80
2018,12,22,16,57,3.60
2018,12,22,16,58,2.80
2018,12,22,16,59,0.70
2018,12,22,17,00,1.70
2018,12,22,17,01,0.10
2018,12,22,17,02,2.10
2018,12,22,17,03,3.10
2018,12,22,17,04,3.70
2018,12,22,17,05,1.20
2018,12,22,17,06,3.80
2018,12,22,17,07,2.30
2018,12,22,17,08,3.60
2018,12,22,17,09,0.40
2018,12,22,17,10,1.80
2018,12,22,17,11,3.20
2018,12,22,17,12,1.90
2018,12,22,17,13,0.90
2018,12,22,17,14,0.10
2018,12,22,17,15,1.70
2018,12,22,17,16,1.10
2018,12,22,17,17,4.40
2018,12,22,17,18,1.80
2018,12,22,17,19,4.50
2018,12,22,17,20,3.50
2018,12,22,17,21,11.20
2018,12,22,17,22,10.40
2018,12,22,17,23,12.30
2018,12,22,17,24,11.10
2018,12,22,17,25,10.10
2018,12,22,17,26,8.50
2018,12,22,17,27,6.40
2018,12,22,17,28,6.70
2018,12,22,17,29,12.60
2018,12,22,17,30,9.20
2018,12,22,17,31,9.50
2018,12,22,17,32,9.30
2018,12,22,17,33,17.20
2018,12,22,17,34,11.10
2018,12,22,17,35,11.40
2018,12,22,17,36,8.70
2018,12,22,17,37,6.10
2018,12,22,17,38,12.20
2018,12,22,17,39,14.90
2018,12,22,17,40,10.70
2018,12,22,17,41,13.90
2018,12,22,17,42,8.30
2018,12,22,17,43,9.10
2018,12,22,17,44,11.20
2018,12,22,17,45,5.90
2018,12,22,17,46,7.90
2018,12,22,17,47,9.70
2018,12,22,17,48,7.70
2018,12,22,17,49,9.40
2018,12,22,17,50,8.80
2018,12,22,17,51,7.90
2018,12,22,17,52,8.40
2018,12,22,17,53,11.30
2018,12,22,17,54,8.90
2018,12,22,17,55,5.30
2018,12,22,17,56,9.10
2018,12,22,17,57,6.70
2018,12,22,17,58,5.50
2018,12,22,17,59,7.00
2018,12,22,18,00,8.80
2018,12,22,18,01,2.90